Flag for Canada Weather past 2 weeks in Markham, Ontario, Canada

Now
14 °F

Passing clouds.


Feels Like: -1 °F
Forecast: 14 / 29 °F
Wind: 15 mph from North

Location: Toronto Buttonville

Current Time: Mar 28, 2015 at 5:23:38 AM

Latest Report: Mar 28, 2015 at 4:00 AM


Visibility: 15 mi

Pressure: 30.11 "Hg

Humidity: 57%

Dew point: 1 °F

Location of MarkhamLocation

Historic Weather in Markham — Graph

°F

Markham temperature yesterday

Maximum temperature yesterday: 34 °F (at 12:00 AM)
Minimum temperature yesterday: 19 °F (at 8:00 PM)
Average temperature yesterday: 26 °F

Past Weeks' High & Low Weather Summary

 TemperatureHumidityPressure
High50 °F (Mar 16, 4:00 PM)100% (Mar 14, 5:00 AM)30.54 "Hg (Mar 14, 5:00 AM)
Low10 °F (Mar 23, 7:00 AM)25% (Mar 19, 2:00 PM)29.68 "Hg (Mar 17, 2:00 AM)
Average31 °F65%30.09 "Hg
* Reported Mar 13 4:00 AM — Mar 28 4:00 AM, Markham, Weather by CustomWeather, © 2015

Note: Actual official high and low records may vary slightly from our data, if they occured in-between our weather recording intervals... More about our weather records

Advertising

Markham weather history for previous 24 hours

 ConditionsComfort  
Time TempWeatherWind HumidityBarometerVisibility
4:00 AM
Sat, Mar 28
14 °FPassing clouds.15 mph57%30.11 "Hg15 mi
3:00 AM16 °FPassing clouds.14 mph62%30.09 "Hg15 mi
2:00 AM16 °FPassing clouds.14 mph57%30.09 "Hg15 mi
1:00 AM18 °FPassing clouds.13 mph53%30.08 "Hg15 mi
12:00 AM19 °FPassing clouds.16 mph53%30.07 "Hg15 mi
11:00 PM
Fri, Mar 27
19 °FPassing clouds.15 mph53%30.05 "Hg15 mi
10:00 PM19 °FPassing clouds.12 mph63%30.04 "Hg15 mi
9:00 PM19 °FSnow flurries. Passing clouds.13 mph63%30.03 "Hg14 mi
8:00 PM19 °FCloudy.14 mph68%30.01 "Hg15 mi
7:00 PM21 °FPartly sunny.15 mph63%29.99 "Hg15 mi
6:00 PM21 °FPartly sunny.17 mph68%29.97 "Hg15 mi
5:00 PM23 °FPartly sunny.17 mph63%29.95 "Hg15 mi
4:00 PM23 °FOvercast.15 mph63%29.93 "Hg15 mi
3:00 PM25 °FSnow flurries. Overcast.15 mph63%29.93 "Hg10 mi
2:00 PM25 °FSnow flurries. Overcast.15 mph63%29.93 "Hg8 mi
1:00 PM27 °FMostly cloudy.14 mph64%29.92 "Hg15 mi
12:00 PM25 °FMostly cloudy.16 mph69%29.91 "Hg15 mi
11:00 AM25 °FOvercast.13 mph69%29.92 "Hg15 mi
10:00 AM25 °FOvercast.13 mph69%29.90 "Hg15 mi
9:45 AMN/AOvercast.15 mphN/AN/A15 mi
9:00 AM23 °FOvercast.15 mph80%29.89 "Hg15 mi
8:00 AM25 °FOvercast.14 mph80%29.88 "Hg15 mi
7:00 AM27 °FPassing clouds.10 mph86%29.86 "Hg15 mi
6:00 AM30 °FPassing clouds.13 mph80%29.85 "Hg15 mi
5:00 AM32 °FPassing clouds.6 mph75%29.84 "Hg15 mi
Weather by CustomWeather, © 2015

See weather overviewHow to use our weather pages